Voltar ao catálogo

ONEWEB-0468

AtivoComunicaçõesPO
NORAD 51652·PAYLOAD·🇬🇧 United Kingdom

Lançado Feb 10, 2022 de Guiana Space Centre

Loading…

Próximas Passagens (próximas 24 horas)

TLE

AtualizadoSource: CelesTrak SupGP

Época: Sep 14, 2026, 13:17 UTC

1 51652C 22012AG  26257.55364998 -.00002940  00000+0 -84317-2 0  2575
2 51652  87.8908  18.4784 0001886  96.1423  16.5935 13.10378109    14

Acompanhe ONEWEB-0468 em tempo real com AllMySat

Download on the App Store